When you browse on this site, cookies collect data to enhance your experience and personalize the content and advertising you see.
Visit our Privacy Policy to learn more. By continuing to use the site, you agree to this use of cookies and data.
  • In Portugal
  • List of Countries
  • For 7 days
  • Water Temperature
  • Weather Map
  • Weather Widgets
  • user-avatar
    Login

    Hourly Weather Pihten

    Today, 29 February, Saturday

    Time Temperature Precipitation Wind Pressure Humidity
    00:00 -6°C° 0 mm 3 mps 729 mmHg 91%
    01:00 -7°C° 0 mm 3 mps 730 mmHg 92%
    02:00 -7°C° 0 mm 3 mps 730 mmHg 92%
    03:00 -7°C° 0.1 mm 3 mps 730 mmHg 91%
    04:00 -8°C° 0.1 mm 4 mps 730 mmHg 91%
    05:00 -8°C° 0.1 mm 4 mps 730 mmHg 90%
    06:00 -8°C° 0.1 mm 4 mps 731 mmHg 89%
    07:00 -8°C° 0.1 mm 4 mps 731 mmHg 88%
    08:00 -7°C° 0.1 mm 3 mps 731 mmHg 88%
    09:00 -7°C° 0 mm 4 mps 731 mmHg 82%
    10:00 -5°C° 0 mm 4 mps 731 mmHg 77%
    11:00 -5°C° 0 mm 4 mps 731 mmHg 71%
    12:00 -4°C° 0 mm 4 mps 732 mmHg 69%
    13:00 -4°C° 0 mm 4 mps 732 mmHg 67%
    14:00 -4°C° 0 mm 4 mps 732 mmHg 66%
    15:00 -4°C° 0 mm 3 mps 732 mmHg 70%
    16:00 -4°C° 0 mm 2 mps 733 mmHg 75%
    17:00 -5°C° 0 mm 2 mps 733 mmHg 79%
    18:00 -5°C° 0 mm 2 mps 733 mmHg 82%
    19:00 -5°C° 0 mm 2 mps 733 mmHg 85%
    20:00 -6°C° 0 mm 2 mps 734 mmHg 87%
    21:00 -5°C° 0 mm 2 mps 734 mmHg 88%
    22:00 -5°C° 0 mm 2 mps 734 mmHg 88%
    23:00 -5°C° 0 mm 2 mps 734 mmHg 88%

    Tomorrow, 1 March, Sunday

    Time Temperature Precipitation Wind Pressure Humidity
    00:00 -6°C° 0 mm 3 mps 734 mmHg 89%
    01:00 -5°C° 0 mm 3 mps 734 mmHg 89%
    02:00 -5°C° 0 mm 3 mps 734 mmHg 90%
    03:00 -5°C° 0 mm 3 mps 734 mmHg 90%
    04:00 -4°C° 0 mm 3 mps 733 mmHg 90%
    05:00 -4°C° 0 mm 3 mps 733 mmHg 90%
    06:00 -4°C° 0 mm 4 mps 733 mmHg 89%
    07:00 -3°C° 0 mm 4 mps 733 mmHg 87%
    08:00 -4°C° 0 mm 5 mps 732 mmHg 85%
    09:00 -2°C° 0 mm 5 mps 732 mmHg 85%
    10:00 -3°C° 0 mm 6 mps 732 mmHg 86%
    11:00 -2°C° 0 mm 6 mps 731 mmHg 86%
    12:00 -2°C° 0.1 mm 6 mps 731 mmHg 89%
    13:00 -2°C° 0.1 mm 6 mps 731 mmHg 92%
    14:00 -2°C° 0.1 mm 6 mps 731 mmHg 95%
    15:00 -1°C° 0.2 mm 5 mps 731 mmHg 95%
    16:00 -1°C° 0.2 mm 5 mps 731 mmHg 96%
    17:00 -1°C° 0.2 mm 5 mps 731 mmHg 96%
    18:00 -1°C° 0.1 mm 5 mps 731 mmHg 96%
    19:00 0°C° 0.1 mm 5 mps 731 mmHg 96%
    20:00 0°C° 0.1 mm 4 mps 732 mmHg 96%
    21:00 0°C° 0.2 mm 4 mps 732 mmHg 96%
    22:00 0°C° 0.2 mm 4 mps 732 mmHg 97%
    23:00 +1°C° 0.2 mm 3 mps 732 mmHg 97%

    Day after tomorrow, 2 March, Monday

    Time Temperature Precipitation Wind Pressure Humidity
    00:00 +1°C° 0.3 mm 3 mps 732 mmHg 97%
    01:00 +1°C° 0.3 mm 3 mps 732 mmHg 97%
    02:00 +1°C° 0.3 mm 3 mps 732 mmHg 97%
    03:00 +1°C° 0.2 mm 3 mps 731 mmHg 97%
    04:00 +1°C° 0.2 mm 3 mps 731 mmHg 97%
    05:00 +1°C° 0.2 mm 3 mps 731 mmHg 97%
    06:00 +1°C° 0.3 mm 3 mps 731 mmHg 97%
    07:00 +1°C° 0.3 mm 3 mps 731 mmHg 97%
    08:00 0°C° 0.3 mm 4 mps 731 mmHg 97%
    09:00 +1°C° 0.2 mm 3 mps 731 mmHg 97%
    10:00 +1°C° 0.2 mm 3 mps 731 mmHg 98%
    11:00 +1°C° 0.2 mm 3 mps 731 mmHg 98%
    12:00 +2°C° 0.1 mm 3 mps 732 mmHg 98%
    13:00 +2°C° 0.1 mm 3 mps 732 mmHg 98%
    14:00 +3°C° 0.1 mm 2 mps 732 mmHg 98%
    15:00 +2°C° 0 mm 2 mps 733 mmHg 98%
    16:00 +2°C° 0 mm 2 mps 733 mmHg 97%
    17:00 +2°C° 0 mm 2 mps 733 mmHg 97%
    18:00 +2°C° 0 mm 2 mps 733 mmHg 97%
    19:00 +2°C° 0 mm 2 mps 733 mmHg 97%
    20:00 +2°C° 0 mm 2 mps 733 mmHg 97%
    21:00 +1°C° 0 mm 3 mps 733 mmHg 97%
    22:00 +1°C° 0 mm 3 mps 733 mmHg 96%
    23:00 +1°C° 0 mm 3 mps 733 mmHg 96%

    3 March, Tuesday

    Time Temperature Precipitation Wind Pressure Humidity
    00:00 +1°C° 0.1 mm 3 mps 733 mmHg 96%
    01:00 0°C° 0.1 mm 4 mps 733 mmHg 97%
    02:00 -1°C° 0.1 mm 4 mps 733 mmHg 97%
    03:00 -1°C° 0.3 mm 4 mps 732 mmHg 97%
    04:00 0°C° 0.3 mm 3 mps 732 mmHg 97%
    05:00 0°C° 0.3 mm 3 mps 732 mmHg 97%
    06:00 0°C° 0.3 mm 3 mps 731 mmHg 97%
    07:00 +1°C° 0.3 mm 2 mps 731 mmHg 98%
    08:00 +1°C° 0.3 mm 2 mps 731 mmHg 98%
    09:00 +2°C° 0.1 mm 2 mps 731 mmHg 98%
    10:00 +2°C° 0.1 mm 2 mps 731 mmHg 98%
    11:00 +2°C° 0.1 mm 2 mps 731 mmHg 98%
    12:00 +3°C° 0.1 mm 2 mps 732 mmHg 98%
    13:00 +3°C° 0.1 mm 2 mps 732 mmHg 98%
    14:00 +3°C° 0.1 mm 2 mps 733 mmHg 97%
    15:00 +3°C° 0 mm 2 mps 733 mmHg 97%
    16:00 +3°C° 0 mm 2 mps 734 mmHg 97%
    17:00 +4°C° 0 mm 1 mps 734 mmHg 97%
    18:00 +4°C° 0 mm 1 mps 735 mmHg 97%
    19:00 +4°C° 0 mm 1 mps 735 mmHg 96%
    20:00 +3°C° 0 mm 1 mps 736 mmHg 96%
    21:00 +2°C° 0 mm 2 mps 736 mmHg 95%
    22:00 +2°C° 0 mm 2 mps 736 mmHg 95%
    23:00 +2°C° 0 mm 2 mps 736 mmHg 95%

    4 March, Wednesday

    Time Temperature Precipitation Wind Pressure Humidity
    00:00 +2°C° 0 mm 2 mps 737 mmHg 94%
    01:00 +2°C° 0 mm 2 mps 737 mmHg 94%
    02:00 +1°C° 0 mm 2 mps 737 mmHg 93%
    03:00 +1°C° 0 mm 2 mps 737 mmHg 93%
    04:00 +1°C° 0 mm 2 mps 737 mmHg 93%
    05:00 0°C° 0 mm 3 mps 736 mmHg 93%
    06:00 0°C° 0 mm 3 mps 736 mmHg 93%
    07:00 0°C° 0 mm 4 mps 736 mmHg 93%
    08:00 0°C° 0 mm 4 mps 736 mmHg 92%
    09:00 +1°C° 0 mm 4 mps 736 mmHg 92%
    10:00 +3°C° 0 mm 4 mps 736 mmHg 91%
    11:00 +3°C° 0 mm 5 mps 736 mmHg 90%
    12:00 +4°C° 0 mm 4 mps 736 mmHg 91%
    13:00 +4°C° 0 mm 4 mps 735 mmHg 93%
    14:00 +4°C° 0 mm 4 mps 735 mmHg 94%
    15:00 +3°C° 0.3 mm 4 mps 735 mmHg 94%
    16:00 +3°C° 0.3 mm 4 mps 735 mmHg 95%
    17:00 +3°C° 0.3 mm 4 mps 734 mmHg 96%
    18:00 +3°C° 0.1 mm 4 mps 734 mmHg 96%
    19:00 +3°C° 0.1 mm 4 mps 734 mmHg 96%
    20:00 +3°C° 0.1 mm 4 mps 734 mmHg 97%
    21:00 +4°C° 0.5 mm 4 mps 734 mmHg 96%
    22:00 +4°C° 0.5 mm 4 mps 733 mmHg 96%
    23:00 +4°C° 0.5 mm 4 mps 733 mmHg 96%

    5 March, Thursday

    Time Temperature Precipitation Wind Pressure Humidity
    00:00 +4°C° 0 mm 4 mps 733 mmHg 95%
    01:00 +4°C° 0 mm 4 mps 733 mmHg 95%
    02:00 +4°C° 0 mm 4 mps 732 mmHg 94%
    03:00 +4°C° 0 mm 4 mps 732 mmHg 93%
    04:00 +3°C° 0 mm 5 mps 731 mmHg 92%
    05:00 +3°C° 0 mm 5 mps 731 mmHg 90%
    06:00 +3°C° 0 mm 5 mps 731 mmHg 89%
    07:00 +3°C° 0 mm 5 mps 730 mmHg 88%
    08:00 +3°C° 0 mm 5 mps 730 mmHg 86%
    09:00 +5°C° 0 mm 5 mps 730 mmHg 85%
    10:00 +6°C° 0 mm 5 mps 730 mmHg 83%
    11:00 +6°C° 0 mm 5 mps 730 mmHg 81%
    12:00 +7°C° 0 mm 5 mps 729 mmHg 81%
    13:00 +7°C° 0 mm 5 mps 729 mmHg 81%
    14:00 +7°C° 0 mm 5 mps 729 mmHg 81%
    15:00 +7°C° 0.1 mm 5 mps 728 mmHg 83%
    16:00 +6°C° 0.1 mm 5 mps 728 mmHg 86%
    17:00 +6°C° 0.1 mm 5 mps 727 mmHg 88%
    18:00 +6°C° 0.3 mm 5 mps 727 mmHg 88%
    19:00 +5°C° 0.3 mm 6 mps 727 mmHg 88%
    20:00 +5°C° 0.3 mm 6 mps 727 mmHg 87%
    21:00 +5°C° 0.1 mm 5 mps 727 mmHg 85%
    22:00 +3°C° 0.1 mm 5 mps 727 mmHg 83%
    23:00 +3°C° 0.1 mm 5 mps 727 mmHg 82%
    Show more